Location: Brabourne
(51.1333°N, 1.0000°E)
Time: 20:13:46
(UTC+00:00)

Cosmos 1825 Rocket - Pass Details

Date: 17 October 2021
Orbit: 604 x 631 km, 82.5° (Epoch: 03 December)

Event Time Altitude Azimuth Distance (km) Brightness Sun altitude
Rises 19:24:08 0° 353° (N) 2,890 7.3 -23.4°
Reaches altitude 10° 19:26:26 10° 359° (N) 1,977 6.3 -23.8°
Enters shadow 19:28:45 28° 16° (NNE) 1,149 4.9 -24.1°
